Houma, LA

4:39 PM CDT on May 25, 2017 (GMT -0500)
Houma-terrebonne

Weather History for KHUM - February, 2013

Change the Weather History Date:

Wednesday, February 6, 2013

  Actual Average Record
Temperature  
Mean Temperature 60 °F -  
Max Temperature 68 °F 62 °F 80 °F (1942)
Min Temperature 51 °F 42 °F 29 °F (1984)
Degree Days  
Heating Degree Days 6    
Growing Degree Days 10 (Base 50)    
Moisture  
Dew Point 57 °F    
Average Humidity 96    
Maximum Humidity 100    
Minimum Humidity 78    
Precipitation  
Precipitation 0.90 in - - ()
Sea Level Pressure  
Sea Level Pressure 30.01 in    
Wind  
Wind Speed 5 mph (NE)    
Max Wind Speed 18 mph    
Max Gust Speed 20 mph    
Visibility 4 miles    
Events Fog , Rain    
Averages and records for this station are not official NWS values.
T = Trace of Precipitation, MM = Missing Value Source: NWS Daily Summary

Daily Weather History Graph

Daily Weather History Graph

Search for Another Location

Airport or City:

Trip Planner

Search our weather history database for the weather conditions in past years. The results will help you decide how hot, cold, wet, or windy it might be!

Date:

Astronomy

Feb. 06, 2013 Rise Set
Actual Time 6:48 AM CST 5:45 PM CST
Civil Twilight 6:24 AM CST 6:09 PM CST
Nautical Twilight 5:55 AM CST 6:38 PM CST
Astronomical Twilight 5:27 AM CST 7:05 PM CST
Moon 3:24 AM CST (2/6) 2:11 PM CST (2/6)
Length of Visible Light 11h 45m
Length of Day
10h 56m
Waning Crescent, 17% of the Moon is Illuminated
Feb 6
Waning Crescent
Feb 10
New
Feb 17
First Quarter
Feb 25
Full
Mar 4
Last Quarter

Hourly Weather History & Observations

Time (CST) Temp. Dew Point Humidity Pressure Visibility Wind Dir Wind Speed Gust Speed Precip Events Conditions
12:15 AM 55.8 °F 55.8 °F 100% 30.02 in 1.5 mi Calm Calm - N/A   Mist
12:35 AM 56.3 °F 56.3 °F 100% 30.03 in 0.5 mi Calm Calm - N/A Fog Fog
12:55 AM 54.7 °F 54.7 °F 100% 30.03 in 0.2 mi Calm Calm - N/A Fog Fog
1:15 AM 54.5 °F 54.5 °F 100% 30.03 in 0.2 mi Calm Calm - N/A Fog Fog
1:35 AM 54.5 °F 54.5 °F 100% 30.04 in 0.2 mi Calm Calm - N/A Fog Fog
1:55 AM 52.9 °F 52.9 °F 100% 30.04 in 0.2 mi Calm Calm - N/A Fog Fog
2:15 AM 53.6 °F 53.6 °F 100% 30.03 in 0.2 mi Calm Calm - N/A Fog Fog
2:35 AM 52.3 °F 52.3 °F 100% 30.03 in 0.2 mi Calm Calm - N/A Fog Fog
2:55 AM 52.9 °F 52.9 °F 100% 30.03 in 0.2 mi Calm Calm - N/A Fog Fog
3:15 AM 52.5 °F 52.5 °F 100% 30.03 in 0.2 mi Calm Calm - N/A Fog Fog
3:35 AM 52.9 °F 52.9 °F 100% 30.05 in 0.2 mi Calm Calm - N/A Fog Fog
4:15 AM 52.2 °F 52.2 °F 100% 30.04 in 0.2 mi Calm Calm - N/A Rain Heavy Rain
4:35 AM 52.3 °F 52.3 °F 100% 30.05 in 0.2 mi Calm Calm - N/A Rain Heavy Rain
4:55 AM 51.8 °F 51.8 °F 100% 30.05 in 0.2 mi Calm Calm - N/A Rain Heavy Rain
5:49 AM 53.6 °F 53.6 °F 100% 30.07 in 0.2 mi NNE 6.9 mph - N/A   Overcast
7:53 AM 55.4 °F 55.4 °F 100% 30.12 in 0.2 mi NE 9.2 mph - N/A Fog Fog
9:48 AM 59.0 °F 59.0 °F 100% 30.12 in 2.0 mi East 18.4 mph - N/A   Overcast
10:50 AM 62.6 °F 62.6 °F 100% 30.11 in 7.0 mi East 11.5 mph - N/A   Overcast
11:50 AM 66.2 °F 60.8 °F 83% 30.09 in 7.0 mi ENE 11.5 mph - N/A   Mostly Cloudy
12:50 PM 68.0 °F 60.8 °F 78% 30.04 in 7.0 mi NE 17.3 mph - N/A   Mostly Cloudy
1:50 PM 66.2 °F 60.8 °F 83% 30.02 in 7.0 mi NE 17.3 mph - N/A   Mostly Cloudy
2:50 PM 64.4 °F 59.0 °F 83% 30.02 in 7.0 mi East 13.8 mph - N/A   Overcast
3:50 PM 64.4 °F 59.0 °F 83% 30.02 in 7.0 mi East 13.8 mph - N/A   Overcast
4:50 PM 62.6 °F 59.0 °F 88% 30.01 in 7.0 mi NE 13.8 mph - N/A   Scattered Clouds
5:50 PM 62.6 °F 59.0 °F 88% 29.96 in 7.0 mi ENE 13.8 mph - N/A   Scattered Clouds
6:15 PM 61.2 °F 58.8 °F 92% 29.97 in 10.0 mi ENE 9.2 mph 17.3 mph N/A   Scattered Clouds
6:35 PM 61.7 °F 59.0 °F 91% 29.97 in 7.0 mi ENE 15.0 mph 18.4 mph N/A   Mostly Cloudy
6:50 PM 62.6 °F 59.0 °F 88% 29.96 in 7.0 mi ENE 13.8 mph - N/A   Scattered Clouds
6:55 PM 61.7 °F 59.0 °F 91% 29.95 in 10.0 mi ENE 13.8 mph - N/A   Mostly Cloudy
7:15 PM 61.7 °F 59.0 °F 91% 29.94 in 10.0 mi ENE 16.1 mph - N/A   Overcast
7:35 PM 61.7 °F 59.4 °F 92% 29.96 in 7.0 mi ENE 12.7 mph 18.4 mph N/A   Overcast
7:55 PM 61.7 °F 59.5 °F 93% 30.01 in 10.0 mi NNW 11.5 mph - N/A Rain Rain
8:15 PM 60.4 °F 59.5 °F 97% 29.98 in 2.0 mi North 13.8 mph 18.4 mph 0.23 in Rain Heavy Rain
8:55 PM 59.9 °F 59.5 °F 99% 30.01 in 5.0 mi North 8.1 mph 17.3 mph 0.35 in Rain Heavy Rain
9:15 PM 59.5 °F 59.5 °F 100% 29.99 in 4.0 mi North 11.5 mph 16.1 mph 0.13 in Rain Heavy Rain
9:35 PM 59.5 °F 59.5 °F 100% 29.99 in 4.0 mi North 11.5 mph 18.4 mph 0.24 in Rain Heavy Rain
9:55 PM 59.5 °F 59.5 °F 100% 29.98 in 5.0 mi NNE 13.8 mph 17.3 mph 0.34 in Rain Rain
10:15 PM 59.9 °F 59.9 °F 100% 29.96 in 3.0 mi NE 15.0 mph 19.6 mph 0.09 in Rain Rain
10:35 PM 59.9 °F 59.9 °F 100% 29.95 in 4.0 mi NE 15.0 mph - 0.17 in Rain Rain
11:15 PM 60.3 °F 60.3 °F 100% 29.94 in 7.0 mi ENE 12.7 mph - 0.02 in Rain Light Rain
11:35 PM 60.4 °F 60.4 °F 100% 29.93 in 7.0 mi ENE 12.7 mph 18.4 mph 0.04 in Rain Light Rain